Regional Weather Roundup
Issued by NWS Jackson, KY

Home | Current Version | Previous Version | Text Only | Print | Product List | Glossary Off
Versions: 1 2 3 4 5 6 7 8 9 10 11 12 13 14 15 16 17 18 19 20 21 22 23 24 25 26 27 28 29 30 31 32 33 34 35 36 37 38 39 40 41 42 43 44 45 46 47 48 49 50

000
ASUS43 KJKL 242111
RWRJKL

EAST KENTUCKY HOURLY WEATHER ROUNDUP
NATIONAL WEATHER SERVICE JACKSON KY
400 PM EST WED DEC 24 2014

NOTE: "FAIR" INDICATES FEW OR NO CLOUDS BELOW 12,000 FEET WITH
NO SIGNIFICANT WEATHER AND/OR OBSTRUCTIONS TO VISIBILITY.

* THESE REPORTS ARE NOT UNDER NWS QUALITY CONTROL AND MAY NOT
  REPORT WEATHER SUCH AS PRECIPITATION AND FOG.

KYZ079-080-083-085-087-088-110-112-115-119-120-242200
...EASTERN KENTUCKY...

CITY           SKY/WX    TMP DP  RH WIND       PRES   REMARKS
JACKSON        CLOUDY    65  52  62 S10G23    29.44S
LONDON         CLOUDY    50  42  74 W16       29.56R
SOMERSET*      CLOUDY    43  41  93 W21G29    29.62R
MONTICELLO*    CLOUDY    45  43  93 W13G21    29.66R FOG
MIDDLESBORO*   RAIN      60  56  87 S7        29.52R
HARLAN APT*    CLOUDY    63  52  67 SE3       29.49F
HAZARD APT*    CLOUDY    66  54  63 SW14G26   29.46S
BLACK MTN*       N/A     50  50 100 SW3         N/A
PIKEVILLE APT* SUNNY     64  54  68 S13       29.46S
BIG SANDY*     CLOUDY    65  55  69 S9        29.45S
MOREHEAD APT*  LGT RAIN  52  48  87 W18G44    29.48R VSB 1
$$

KYZ035-036-041-042-044-050-067-078-099-242200
...CENTRAL KENTUCKY...

CITY           SKY/WX    TMP DP  RH WIND       PRES   REMARKS
MT STERLING*   CLOUDY    46  45  93 W26G35    29.52R
FLEMING/MASON* LGT RAIN  50  48  92 W25G33    29.45R
DANVILLE*      RAIN      43  41  93 W16       29.57R
RICHMOND*      CLOUDY    46  43  87 W18G25    29.55R
LEXINGTON      LGT RAIN  45  42  89 SW17G28   29.55R
FRANKFORT      CLOUDY    44  41  89 W10G20    29.53R
$$

KYZ091>093-OHZ055-061-077-WVZ005-015-034-035-042-242200
...SOUTHERN OHIO/WEST VIRGINIA...

CITY           SKY/WX    TMP DP  RH WIND       PRES   REMARKS
COVINGTON      RAIN      44  39  82 W16       29.44R
COLUMBUS       CLOUDY    57  53  86 SE10      29.33F
DAYTON         LGT RAIN  45  42  89 W20G29    29.38R
WILMINGTON     LGT RAIN  51  46  83 W30G38    29.35R
HUNTINGTON     CLOUDY    65  54  67 S10       29.40F
CHARLESTON     CLOUDY    66  52  60 SE13G18   29.43F
PINEVILLE*     CLOUDY    58  58 100 MISG      29.55F
BECKLEY        CLOUDY    55  51  86 S12       29.55F
BLUEFIELD      CLOUDY    60  52  74 VRB7      29.59F
$$

VAZ002-007-008-TNZ017-027-036-066-071-242200
...SOUTHWEST VIRGINIA/EAST TENNESSEE...

CITY           SKY/WX    TMP DP  RH WIND       PRES   REMARKS
WISE*          CLOUDY    59  55  88 S10G18    29.53F
JONESVILLE*    CLOUDY    59  55  88 S3        29.53F
ABINGDON*      CLOUDY    63  57  80 CALM      29.55F
BRISTOL        CLOUDY    64  56  75 SE3       29.53F
KNOXVILLE      LGT RAIN  58  56  93 W13       29.55R
OAK RIDGE      LGT RAIN  51  47  86 W10G21    29.60R
CROSSVILLE     CLOUDY    44  40  85 W17G23    29.67R
NASHVILLE      PTSUNNY   47  41  80 SW5       29.71R
$$

...KEY TO REMARKS...
VSB - VISIBILITY IN MILES
WCI - WIND CHILL INDEX
HX  - HEAT INDEX

$$


USA.gov is the U.S. government's official web portal to all federal, state and local government web resources and services.